Location: Hamlet Park
(41.1553°N, 81.2100°W)
Time: 05:28:22
(UTC+00:00)

Daily predictions for brighter satellites

Satellite Brightness Start Highest point End
(mag) Time Altitude Azimuth Time Altitude Azimuth Time Altitude Azimuth
Cosmos 1110 Rocket 4.0 00:23:21 10° SSW 00:28:29 89° ESE 00:33:42 10° NNE
SJ-6B 3.0 00:25:33 10° SSE 00:29:22 52° ENE 00:33:15 10° N
OAO 3 Rocket 3.9 00:26:20 10° WSW 00:30:52 39° S 00:35:26 10° ESE
NOSS 2-2 (D) 2.7 00:29:45 10° SSW 00:33:11 84° ESE 00:36:18 10° NE
Cosmos 1408 4.2 00:30:42 10° NNW 00:33:32 32° W 00:36:19 10° SSW
DELTA 2 R/B (1) 4.0 00:28:19 10° W 00:33:48 57° SSW 00:39:17 10° ESE
Cosmos 1378 Rocket 3.7 00:31:54 10° N 00:36:13 80° W 00:40:29 10° S
NOSS 2-3 (E) 3.5 00:33:03 10° SW 00:36:41 71° NW 00:40:36 10° NNE
PAYLOAD B 4.3 00:31:16 10° SSE 00:36:43 64° ENE 00:42:13 10° N
Cosmos 2221 Rocket 3.6 00:33:39 10° N 00:38:13 86° E 00:42:45 10° S
Nadezhda 1 Rocket 4.3 00:32:13 10° SSW 00:38:15 71° W 00:44:20 10° N
Cosmos 1782 Rocket 4.3 00:35:01 10° SSE 00:38:49 30° E 00:42:40 10° NNE
Landsat 7 4.3 00:35:53 10° S 00:40:33 64° W 00:45:14 10° NNW
Cosmos 1892 2.7 00:38:31 10° N 00:42:01 51° E 00:45:29 10° SSE
Cosmos 1741 Rocket 4.0 00:36:46 10° NNW 00:42:02 85° ENE 00:47:18 10° SSE
ATLAS 5 CENTAUR R/B 2.7 00:41:13 10° SE 00:42:40 12° ESE 00:44:08 10° E
Cosmos 1242 Rocket 3.9 00:40:25 10° NNW 00:43:09 34° W 00:45:53 10° SSW
Cosmos 1461 4.4 00:39:40 10° SW 00:43:37 41° NW 00:47:27 10° NNE
Cosmos 1908 Rocket 3.5 00:41:10 10° S 00:45:27 74° E 00:49:47 10° NNE
Cosmos 968 Rocket 3.5 00:40:54 10° NNW 00:45:58 62° ENE 00:51:02 10° SSE
USA 186 2.3 00:44:03 10° SE 00:46:56 37° ENE 00:49:47 10° N
SL-4 R/B 3.6 00:45:07 10° W 00:48:27 29° NNW 00:51:38 10° NE
CZ-4 R/B 1.3 00:45:11 10° SSE 00:49:09 81° ENE 00:53:04 10° N
Feng Yun 1-1 Rocket 4.4 00:47:20 10° SSE 00:52:39 54° ENE 00:58:07 10° N
Cosmos 1455 2.1 00:51:03 10° S 00:54:30 52° E 00:57:59 10° NNE
USA 129 3.0 00:52:33 10° NE 00:54:34 20° E 00:54:47 20° E
Meteor 1-16 Rocket 4.3 00:49:51 10° S 00:55:32 82° W 01:01:04 10° N
CSL-04 Debris 4.3 00:53:49 10° SSE 00:59:06 56° ENE 01:04:25 10° N
Timation 1 Rocket 4.3 00:56:34 10° NNW 01:02:34 77° ENE 01:08:31 10° SSE
CZ-4B R/B 4.2 00:59:23 10° SSW 01:02:56 38° W 01:06:21 10° NNW
Cosmos 1953 2.3 00:59:24 10° S 01:03:12 79° W 01:07:03 10° N
Cosmos 1300 Rocket 3.8 01:01:07 10° SSE 01:05:17 47° E 01:09:30 10° NNE
CSL-04 Rocket 3.7 01:04:08 10° SSE 01:09:35 64° ENE 01:15:01 10° N
Cosmos 2181 Rocket 3.9 01:05:00 10° S 01:11:05 68° E 01:17:17 10° NNE
MOS 1-B 4.3 01:08:01 10° SSE 01:13:49 81° ENE 01:19:38 10° NNW
SJ 16-02 1.4 01:09:58 10° N 01:14:15 60° ENE 01:17:18 18° SSE
DELTA 2 DEB (DPAF) 4.0 01:10:05 10° NNE 01:14:20 90° ESE 01:18:33 10° SSW
NOSS 3-1 (A) 3.9 01:11:47 10° SSE 01:15:33 23° ESE 01:19:42 10° ENE
Cosmos 2369 Rocket 2.8 01:11:25 10° SW 01:17:02 63° WNW 01:22:40 10° NNE
SL-8 Rocket 4.0 01:11:54 10° N 01:18:08 87° W 01:24:17 10° S
CZ-4C R/B 3.5 01:17:22 10° NNE 01:20:33 34° E 01:21:31 28° SE
Cosmos 1992 Rocket 4.1 01:16:14 10° S 01:21:15 53° ESE 01:26:20 10° NNE
SPOT 1/Viking Rocket 4.2 01:19:32 10° S 01:24:39 57° W 01:29:48 10° NNW
Cosmos 2263 4.4 01:20:16 10° SSW 01:25:53 73° WNW 01:31:31 10° NNE
Cosmos 2098 Rocket 3.4 01:20:40 10° S 01:26:06 60° E 01:30:36 10° NNE
Cosmos 2341 Rocket 4.4 01:23:04 10° NNW 01:29:18 66° W 01:35:28 10° S
CZ-4B R/B 3.7 01:24:25 10° S 01:30:00 62° WSW 01:35:35 10° NNW
Cosmos 1825 3.3 01:26:53 10° NNW 01:30:07 38° W 01:33:20 10° SSW
Okean-O 2.9 01:28:34 27° SE 01:30:35 47° ENE 01:34:49 10° N
PSLV R/B 3.8 01:28:18 15° S 01:31:13 73° WSW 01:34:57 10° NNW
Terra 3.5 01:30:44 16° ENE 01:31:21 17° ENE 01:34:18 10° NNE
USA 234 3.6 01:28:21 17° SSE 01:33:32 63° SW 01:40:01 10° NW
Cosmos 1833 4.1 01:29:04 10° NNW 01:34:43 71° ENE 01:37:59 26° SE
NOSS 3-1 (C) 2.9 01:33:51 10° SSW 01:38:36 86° SE 01:44:15 10° NE
Hubble Space Telescope 2.9 01:40:15 10° SSW 01:41:39 13° S 01:41:39 13° S
Ariane Rocket 4.2 01:47:05 23° ENE 01:47:37 23° ENE 01:51:34 10° NNE
Cosmos 1025 Rocket 4.5 01:46:35 10° NNW 01:50:35 36° W 01:54:35 10° SSW
Okean O Rocket 2.5 01:49:28 13° S 01:53:03 46° W 01:57:16 10° NNW
Nadezhda 3 Rocket 3.9 01:49:58 16° S 01:54:57 68° E 02:01:04 10° NNE
Cosmos 2239 Rocket 4.5 01:49:38 10° N 01:55:52 62° E 01:58:31 34° SSE
Cosmos 1486 Rocket 4.3 01:53:32 10° N 01:58:35 48° ENE 01:59:33 42° E
Resurs 01 Rocket 2.8 01:55:01 12° SSW 01:58:47 40° W 02:02:57 10° NNW
ATLAS 3B R/B 2.7 01:53:11 10° SSW 02:00:03 68° ESE 02:07:28 10° NE
Cosmos 1975 Rocket 3.7 01:58:34 10° NNW 02:02:46 51° W 02:05:11 23° SSW
USA 281 3.4 01:59:34 23° SSE 02:03:51 71° WSW 02:10:26 10° NNW
Cosmos 1821 Rocket 4.0 01:58:23 10° N 02:04:34 79° W 02:08:32 23° S
Iridium 4 Rocket 4.0 02:09:52 44° E 02:10:02 44° E 02:15:20 10° NNE
SL-27 R/B 3.8 02:08:44 10° NNW 02:10:18 28° NNW 02:10:18 28° NNW
OAO 3 Rocket 4.1 02:09:20 10° WSW 02:13:29 34° SSW 02:13:29 34° SSW
SPOT 5 3.1 02:24:44 54° S 02:25:58 80° WSW 02:31:19 10° NNW
ATLAS 5 CENTAUR R/B 2.4 02:22:57 10° WSW 02:26:04 37° NW 02:29:28 10° NNE
SL-4 R/B 4.3 02:25:59 10° NW 02:28:06 15° N 02:29:13 13° NNE
Cosmos 1536 Rocket 3.8 02:24:15 10° N 02:28:03 63° NNE 02:28:03 63° NNE
Cosmos 2151 Rocket 3.6 02:28:54 78° NW 02:28:54 78° NW 02:33:09 10° N
Cosmos 2227 Rocket 4.1 02:27:13 10° N 02:30:43 16° NE 02:31:09 16° NE
ERS-1 Rocket 2.8 02:36:16 83° ENE 02:36:16 83° ENE 02:41:14 10° NNW
Cosmos 1339 Rocket 4.4 02:38:58 51° SSW 02:40:41 86° W 02:46:51 10° N
CZ-4C R/B 4.3 02:42:48 10° NNW 02:48:36 27° NE 02:51:18 22° ENE
Cosmos 1934 Rocket 3.9 02:44:28 10° N 02:50:38 80° W 02:51:27 68° SSW
Cosmos 1777 Rocket 4.2 02:46:23 10° NNW 02:50:57 62° NNE 02:50:57 62° NNE
SJ 16-02 4.1 02:50:41 10° WNW 02:52:01 11° W 02:53:21 10° WSW
Okean 2 Rocket 3.9 02:52:04 48° WNW 02:52:04 48° WNW 02:56:25 10° N
Alouette 2 Rocket 4.3 02:44:34 10° NNW 02:52:27 89° W 02:52:47 81° S
Cosmos 371 Rocket 3.9 02:54:47 10° NNW 02:58:28 53° NNW 02:58:28 53° NNW
Cosmos 2297 Rocket 2.9 02:54:56 10° NNW 02:59:36 43° NE 02:59:36 43° NE
COSMOS 2455 3.8 02:55:38 10° NNW 03:00:56 34° NE 03:00:56 34° NE
Cosmos 1354 Rocket 4.3 02:56:51 10° NNW 03:01:18 62° N 03:01:18 62° N
Cosmos 1503 Rocket 4.3 02:57:01 10° NNW 03:01:49 67° WNW 03:01:49 67° WNW
NOSS 3-1 (A) 4.0 03:01:06 10° WSW 03:05:49 45° NW 03:11:24 10° NNE
Spot 2 Rocket 4.0 03:07:30 58° NW 03:07:30 58° NW 03:11:48 10° NNW
Terra 2.7 03:09:27 46° WNW 03:09:27 46° WNW 03:13:08 10° NNW
USA 229 DEB 4.4 03:16:02 38° NE 03:16:02 38° NE 03:20:02 10° NE
USA 229 4.4 03:16:14 37° NE 03:16:14 37° NE 03:20:10 10° NE
CENTAUR R/B 4.5 03:18:11 10° NNW 03:25:06 30° NE 03:28:19 24° ENE
Ariane Rocket 4.2 03:27:13 38° WNW 03:27:13 38° WNW 03:31:04 10° NNW
Cosmos 1656 4.4 03:29:29 50° NNW 03:29:29 50° NNW 03:33:56 10° NNE
Cosmos 2263 Rocket 4.2 03:30:56 10° N 03:34:00 18° NE 03:34:00 18° NE
ATLAS 3B R/B 4.4 03:45:08 10° W 03:51:25 32° NW 03:58:04 10° NNE
Cosmos 2227 Rocket 3.6 04:09:49 10° NNW 04:12:58 35° NNW 04:12:58 35° NNW
Cosmos 1980 Rocket 4.3 04:21:01 19° NNE 04:21:01 19° NNE 04:22:34 10° NNE
Cosmos 1697 Rocket 4.3 04:30:32 30° N 04:30:32 30° N 04:33:35 10° NNE
CZ-4C R/B 3.3 04:30:30 10° NW 04:36:24 62° NNW 04:36:24 62° NNW
Cosmos 2297 Rocket 4.4 04:39:35 10° NW 04:41:24 18° WNW 04:41:24 18° WNW
CENTAUR R/B 3.5 05:08:25 10° NW 05:15:26 67° NNW 05:15:26 67° NNW
Cosmos 2263 Rocket 4.2 05:13:46 10° NNW 05:15:40 22° NNW 05:15:40 22° NNW
SL-16 R/B 4.2 05:40:46 24° NNE 05:40:46 24° NNE 05:42:53 10° NNE
NOSS 3-2 (C) 4.5 05:41:50 10° NNW 05:48:48 58° NE 05:48:48 58° NE
Cosmos 1980 Rocket 4.4 06:02:44 19° NNW 06:02:44 19° NNW 06:05:34 10° N
USA 267 4.0 06:04:36 48° NNE 06:04:36 48° NNE 06:10:30 10° NW
Lacrosse 5 3.9 06:42:19 25° NE 06:42:19 25° NE 06:44:26 10° NE
USA 238 DEB 4.1 06:41:19 10° NNW 06:48:03 71° N 06:48:03 71° N
USA 238 4.0 06:41:25 10° NNW 06:48:16 72° NNE 06:48:16 72° NNE
Cosmos 2333 Rocket 3.4 06:52:51 38° N 06:52:51 38° N 06:56:18 10° NNE
Resurs 1-4 Rocket 3.7 06:45:55 10° NNE 06:49:06 30° ENE 06:49:06 30° ENE
Cosmos 2360 Rocket 3.5 06:56:51 36° N 06:56:51 36° N 07:00:18 10° NNE
Cosmos 2322 Rocket 3.6 07:06:40 30° NNW 07:06:40 30° NNW 07:10:07 10° N
IDEFIX/ARIANE 42P 3.7 07:05:27 10° NNE 07:08:47 40° NNE 07:08:47 40° NNE
Cosmos 2219 Rocket 3.0 07:14:08 46° NNE 07:14:08 46° NNE 07:18:02 10° NNE
USA 215 4.3 07:08:10 10° NE 07:14:02 37° NNW 07:15:23 33° NW
SL-16 R/B 4.1 07:22:36 19° NW 07:22:36 19° NW 07:25:53 10° N
MSX 4.2 07:18:31 10° NNE 07:23:18 62° NNE 07:23:18 62° NNE
NOSS 3-4 (A) 4.0 07:26:04 46° NNW 07:26:04 46° NNW 07:30:50 10° NNE
NOSS 3-4 (C) 4.0 07:26:07 46° NNW 07:26:07 46° NNW 07:30:54 10° NNE
ADEOS II 2.5 07:32:17 10° NNE 07:36:45 58° ENE 07:36:45 58° ENE
FENGYUN 3A 4.0 07:36:43 10° NNE 07:41:48 61° E 07:41:48 61° E
Meteor 2-6 Rocket 4.5 07:45:26 67° NNW 07:45:26 67° NNW 07:50:45 10° N
CZ-2D R/B 2.6 07:45:11 10° N 07:49:32 54° NNW 07:49:32 54° NNW
SL-16 R/B 2.6 07:51:52 46° SE 07:53:45 73° ENE 07:59:57 10° N
Cosmos 2180 Rocket 4.4 07:47:48 10° N 07:54:09 77° W 07:54:09 77° W
Cosmos 1805 Rocket 4.4 07:58:35 10° N 08:02:45 44° ENE 08:02:57 44° E
UNK 4.4 08:02:06 46° ESE 08:02:47 51° ENE 08:07:15 10° N
Cosmos 1500 Rocket 4.1 07:58:59 10° N 08:03:03 55° ENE 08:03:03 55° ENE
Meteor 1-27 Rocket 4.1 08:04:14 48° SSE 08:05:35 61° E 08:11:13 10° NNE
IRAS Rocket 4.1 08:01:26 10° NNE 08:07:05 79° WNW 08:07:17 78° W
Cosmos 1943 Rocket 4.0 08:02:31 10° N 08:07:30 31° ENE 08:12:28 10° ESE
COSMOS 2428 2.8 08:10:38 58° WNW 08:10:39 58° WNW 08:16:17 10° NNE
Meteor 1-10 Rocket 4.2 08:13:29 69° WSW 08:13:57 73° W 08:19:55 10° N
Cosmos 1733 4.4 08:12:24 10° N 08:15:45 36° ENE 08:15:45 36° ENE
CZ-2C R/B 3.3 08:17:16 39° WNW 08:17:16 39° WNW 08:21:10 10° NNW
AQUA 4.1 08:11:49 10° N 08:15:55 56° NW 08:15:55 56° NW
Cosmos 2237 Rocket 2.4 08:16:42 51° SSE 08:17:55 65° ESE 08:23:33 10° NNE
BlueWalker 3 4.1 08:15:54 15° NNW 08:18:11 25° NNE 08:21:23 10° E
Cosmos 1980 3.8 08:18:03 56° S 08:19:11 71° ESE 08:24:50 10° NNE
Cosmos 1867 3.4 08:16:49 10° NNW 08:22:20 88° WSW 08:27:46 10° SSE
Meteor 1-11 Rocket 3.5 08:16:59 10° NNW 08:22:35 82° W 08:23:44 57° S
Lacrosse 5 3.7 08:21:30 18° NW 08:23:03 21° NNW 08:26:55 10° NNE
CZ-2C R/B 3.3 08:18:34 10° N 08:23:30 52° WNW 08:23:30 52° WNW
ALOS 2.1 08:19:16 10° N 08:23:55 83° WNW 08:23:56 83° W
ATLAS 2AS CENTAUR R/B 4.0 08:19:51 19° SSE 08:24:28 36° ESE 08:30:57 10° NE
Cosmos 2322 4.5 08:26:12 35° WNW 08:26:33 35° WNW 08:31:47 10° N
Sich 1 2.9 08:23:58 10° N 08:28:05 83° NNE 08:28:05 83° NNE
Cosmos 1340 Rocket 4.1 08:28:57 29° SE 08:29:59 35° E 08:33:31 10° NNE
Resurs 1-4 Rocket 3.3 08:26:06 10° N 08:30:10 26° WNW 08:30:10 26° WNW
Meteor 2-9 Rocket 4.0 08:27:39 10° N 08:33:04 90° W 08:35:52 30° S
Cosmos 1536 4.4 08:30:28 10° NNW 08:32:13 24° NNW 08:32:13 24° NNW
Cosmos 2344 4.2 08:26:50 10° NW 08:35:39 88° ENE 08:48:07 10° SSE
Cosmos 2333 Rocket 4.3 08:34:50 12° WNW 08:35:56 13° NW 08:38:22 10° NNW
Cosmos 1743 Rocket 3.3 08:33:11 10° N 08:37:31 78° W 08:37:38 77° WSW
Cosmos 2195 Rocket 4.4 08:36:50 41° SSW 08:39:07 73° W 08:45:24 10° N
Nadezhda 4 Rocket 4.4 08:44:00 38° W 08:44:57 40° WNW 08:50:40 10° N
NOSS 2-2 (C) 4.4 08:43:13 10° NNW 08:47:50 68° NE 08:54:26 10° SE
Okean 1 4.4 08:50:16 29° NW 08:50:16 29° NW 08:52:48 10° NNW
IDEFIX/ARIANE 42P 4.4 08:46:45 10° NNW 08:49:33 15° WNW 08:49:33 15° WNW
NOSS 0 Rocket 4.2 08:48:14 39° WSW 08:50:08 52° WNW 08:56:08 10° NNE
Cosmos 1680 Rocket 3.5 08:47:52 35° S 08:50:10 81° ESE 08:55:31 10° NNE
GP-B 3.7 08:46:08 10° NNW 08:49:53 38° WNW 08:49:53 38° WNW
Cosmos 192 4.2 08:46:08 10° NNW 08:51:00 67° WSW 08:54:23 20° S
Cosmos 2278 Rocket 2.1 08:46:39 10° NNW 08:52:19 70° WSW 08:57:55 10° SSE
Cosmos 2219 Rocket 4.1 08:55:50 13° WNW 08:57:16 14° NW 09:00:02 10° NNW
Cosmos 1420 Rocket 4.4 08:55:11 10° NNW 09:00:25 64° ENE 09:05:38 10° SSE
BREEZE-M DEB (TANK) 4.3 09:00:45 35° WSW 09:02:56 88° NW 09:18:19 10° ENE
Meteor 2-10 4.3 08:57:46 10° NNW 09:03:15 55° W 09:07:23 18° SSW
Cosmos 1461 2.5 09:00:02 10° NW 09:03:50 67° WSW 09:07:36 10° SSE
Cosmos 2056 Rocket 4.2 08:58:58 10° NNW 09:04:18 59° ENE 09:09:38 10° SSE
RESURS DK-1 3.7 09:04:22 23° WNW 09:04:36 23° NW 09:07:54 10° N
SL-16 R/B 3.0 09:03:20 11° S 09:08:31 50° ESE 09:13:58 10° NE
METEOR-M 4.1 09:03:18 10° N 09:08:36 69° WNW 09:11:50 24° SSW
Cosmos 1151 Rocket 3.4 09:07:55 37° WSW 09:08:40 41° WNW 09:12:45 10° N
Cosmos 1553 Rocket 4.1 09:04:19 10° N 09:10:39 80° E 09:16:49 10° S
CZ-2C R/B 2.5 09:05:29 10° NNE 09:10:40 87° WNW 09:14:38 17° SSW
PAYLOAD A 3.8 09:09:14 10° NNE 09:14:12 88° ESE 09:18:06 15° SSW
USA 308 3.8 09:12:46 22° S 09:14:33 34° SE 09:18:07 10° ENE
ADEOS II 3.7 09:13:20 10° NNW 09:16:35 17° WNW 09:17:38 16° WNW
Cosmos 1624 Rocket 4.2 09:11:29 10° NNW 09:16:43 74° ENE 09:21:53 10° SSE
Cosmos 921 Rocket 2.9 09:16:42 22° SSW 09:19:24 88° WNW 09:23:44 10° NNE
Cosmos 1340 2.3 09:16:12 10° N 09:19:38 85° E 09:23:03 10° S
Cosmos 1626 2.0 09:18:47 17° S 09:21:09 71° E 09:24:27 10° NNE
Cosmos 1975 2.6 09:18:50 10° NNW 09:22:40 68° W 09:26:30 10° S
Cosmos 1515 Rocket 4.4 09:19:51 10° S 09:24:09 52° E 09:28:29 10° NNE
Intercosmos 25 Rocket 3.4 09:20:46 10° NNW 09:24:18 69° W 09:29:28 10° S
ATLAS 5 CENTAUR R/B 3.6 09:24:56 10° NNW 09:29:40 39° NE 09:35:23 10° ESE
Cosmos 1470 Rocket 3.9 09:26:14 10° N 09:30:37 70° E 09:35:01 10° SSE
Meteor 2-12 Rocket 4.4 09:24:43 10° SSW 09:30:45 78° W 09:36:50 10° N
NOSS 7 (E) 4.4 09:28:10 10° NW 09:31:24 68° WSW 09:35:26 10° SSE
Envisat 3.4 09:26:44 10° N 09:31:31 42° WNW 09:34:51 18° SW
Cosmos 1484 Rocket 3.9 09:28:44 10° NNE 09:32:10 40° E 09:35:32 10° S
BREEZE-M DEB (TANK) 2.7 09:34:04 18° WSW 09:37:50 51° NNW 09:40:19 10° NE
SL-16 R/B 3.8 09:36:56 17° WSW 09:37:53 17° W 09:41:50 10° NW
Cosmos 1666 Rocket 4.0 09:39:54 10° NNW 09:44:04 40° W 09:48:11 10° SSW
Meteor 1-18 Rocket 4.4 09:39:30 10° SSW 09:44:58 53° WNW 09:50:34 10° N
Cosmos 1371 Rocket 4.0 09:40:26 10° NNW 09:45:36 59° WSW 09:50:46 10° S
Thor Agena Rocket 4.0 09:44:32 10° N 09:49:13 40° WNW 09:53:50 10° SW
Cosmos 1066 Rocket 4.1 09:44:34 10° SSW 09:49:55 74° W 09:55:23 10° N
YAOGAN 6 3.6 09:48:34 10° NNW 09:51:16 24° WNW 09:53:02 16° WSW
Cosmos 1943 Rocket 2.6 09:46:04 10° NW 09:51:18 40° WSW 09:56:32 10° S
H-2A R/B 2.3 09:48:15 10° NNE 09:53:16 72° ESE 09:58:22 10° S
Meteor 2-4 Rocket 4.2 09:48:37 11° SW 09:53:17 37° WNW 09:58:21 10° N
USA 290 2.4 09:53:00 10° NNW 09:56:05 70° ENE 09:59:07 10° SSE
BlueWalker 3 1.9 09:52:54 10° WNW 09:56:42 64° SW 10:00:28 10° SE
Cosmos 1842 3.3 09:53:27 10° S 09:57:10 77° E 10:00:55 10° N
Cosmos 1933 Rocket 3.9 09:53:36 10° N 09:57:58 70° E 10:02:16 10° SSE
Cosmos 2297 4.1 09:56:32 10° NNW 10:02:17 71° ENE 10:08:00 10° SSE
Cosmos 2237 Rocket 3.7 09:58:31 11° W 10:02:28 20° NW 10:06:39 10° N
Lacrosse 5 4.3 10:05:25 10° NNW 10:07:50 13° N 10:10:15 10° NNE
Cosmos 2369 Rocket 2.9 10:05:17 10° NNW 10:10:51 61° ENE 10:16:21 10° SE
ATLAS 2AS CENTAUR R/B 3.2 10:07:57 10° SW 10:15:12 53° NW 10:22:13 10° NNE
Cosmos 1707 2.5 10:14:17 10° S 10:17:55 80° W 10:21:37 10° N
Cosmos 883 Rocket 4.4 10:13:51 10° N 10:19:58 75° W 10:26:03 10° S
Orbus 7S? 4.4 10:17:47 10° SSW 10:20:47 30° SE 10:23:13 10° ENE
S3M 4.2 10:17:22 10° NNW 10:23:18 51° W 10:29:17 10° SSW
BREEZE-M DEB (TANK) 4.1 10:07:47 10° WNW 10:25:21 79° SW 10:29:52 10° SE
